IRIDIUM 49 [+]

Last updated on Fri Jan 26 2018 00:19:30 GMT+0000 (Coordinated Universal Time)

1 25108U 97082E 18025.61303715 .00000142 00000-0 26032-4 0 9998 2 25108 86.4035 162.4599 0036009 1.9421 127.9246 14.57498989 52254
UTC large
Height (km)
Speed (km/s)
/
Latitude / Longitude
Inclination (degrees)
Orbital Period (minutes)
Azimuth
Elevation
Range (km)
Doppler Factor

Next 0 passes for location: London (51.5072 / 0.1276)

Sorry there are no passes over London.